Weather History for Dallas Redbird, TX

Change the Weather History Date:

Sunday, September 1, 2013

  Actual Average Record
Temperature  
Mean Temperature 93 °F -  
Max Temperature 105 °F 90 °F 106 °F (2000)
Min Temperature 80 °F 70 °F 62 °F (2004)
Cooling Degree Days 28    
Growing Degree Days 43 (Base 50)    
Moisture  
Dew Point 65 °F    
Average Humidity 43    
Maximum Humidity 79    
Minimum Humidity 24    
Precipitation  
Precipitation 0.03 in - - ()
Sea Level Pressure  
Sea Level Pressure 29.81 in    
Wind  
Wind Speed 5 mph (SSE)    
Max Wind Speed 8 mph    
Max Gust Speed -    
Visibility 10 miles    
Events Rain , Thunderstorm    
Averages and records for this station are not official NWS values.
T = Trace of Precipitation, MM = Missing Value Source: NWS Daily Summary

Daily Weather History Graph

Daily Weather History Graph

Search for Another Location

Airport:

Trip Planner

Search our weather history database for the weather conditions in past years. The results will help you decide how hot, cold, wet, or windy it might be!

Date:

Astronomy

Sep. 01, 2013 Rise Set
Actual Time 7:02 AM CDT 7:51 PM CDT
Civil Twilight 6:37 AM CDT 8:16 PM CDT
Nautical Twilight 6:07 AM CDT 8:46 PM CDT
Astronomical Twilight 5:37 AM CDT 9:16 PM CDT
Moon 3:33 AM CDT (9/1) 5:23 PM CDT (9/1)
Length of Visible Light 13h 39m
Length of Day
12h 49m
Waning Crescent, 13% of the Moon is Illuminated
Sep 1
Waning Crescent
Sep 5
New
Sep 12
First Quarter
Sep 19
Full
Sep 26
Last Quarter

Hourly Weather History & Observations

Time (CDT) Temp. Heat Index Dew Point Humidity Pressure Visibility Wind Dir Wind Speed Gust Speed Precip Events Conditions
12:53 AM 89.1 °F 89.3 °F 62.1 °F 40% 29.78 in 10.0 mi South 4.6 mph - N/A   Clear
1:53 AM 87.1 °F 87.8 °F 63.0 °F 44% 29.79 in 10.0 mi Variable 4.6 mph - N/A   Clear
2:53 AM 84.9 °F 86.1 °F 64.0 °F 49% 29.80 in 10.0 mi South 5.8 mph - N/A   Clear
3:53 AM 82.9 °F 84.6 °F 64.9 °F 54% 29.80 in 10.0 mi South 4.6 mph - N/A   Clear
4:53 AM 82.0 °F 83.8 °F 64.9 °F 56% 29.80 in 10.0 mi South 5.8 mph - N/A   Clear
5:53 AM 82.0 °F 84.1 °F 66.0 °F 58% 29.81 in 10.0 mi South 3.5 mph - N/A   Clear
6:53 AM 81.0 °F 83.3 °F 66.9 °F 62% 29.81 in 10.0 mi Variable 4.6 mph - N/A   Clear
7:53 AM 82.0 °F 84.5 °F 66.9 °F 60% 29.83 in 10.0 mi Variable 3.5 mph - N/A   Clear
8:53 AM 84.9 °F 88.2 °F 68.0 °F 57% 29.85 in 10.0 mi Variable 6.9 mph - N/A   Clear
9:53 AM 89.1 °F 92.1 °F 66.9 °F 48% 29.86 in 10.0 mi Variable 6.9 mph - N/A   Clear
10:53 AM 93.0 °F 95.9 °F 66.0 °F 41% 29.86 in 10.0 mi SW 8.1 mph - N/A   Clear
11:53 AM 96.1 °F 99.3 °F 66.0 °F 37% 29.85 in 10.0 mi WSW 3.5 mph - N/A   Clear
12:53 PM 98.1 °F 101.2 °F 64.9 °F 34% 29.84 in 10.0 mi Variable 4.6 mph - N/A   Partly Cloudy
1:53 PM 102.0 °F 105.2 °F 64.0 °F 29% 29.82 in 10.0 mi Calm Calm - N/A   Clear
2:53 PM 102.9 °F 104.8 °F 62.1 °F 26% 29.80 in 10.0 mi Variable 4.6 mph - N/A   Clear
3:53 PM 104.0 °F 105.3 °F 60.1 °F 24% 29.77 in 10.0 mi ESE 5.8 mph - N/A   Partly Cloudy
4:53 PM 105.1 °F 107.1 °F 61.0 °F 24% 29.75 in 10.0 mi East 8.1 mph - N/A   Clear
5:53 PM 104.0 °F 105.3 °F 61.0 °F 24% 29.74 in 10.0 mi East 6.9 mph - N/A   Clear
6:53 PM 100.9 °F 102.1 °F 61.0 °F 27% 29.75 in 10.0 mi ESE 8.1 mph - N/A   Clear
7:53 PM 97.0 °F 97.8 °F 62.1 °F 31% 29.76 in 10.0 mi ESE 5.8 mph - N/A   Clear
8:53 PM 93.9 °F 95.2 °F 63.0 °F 36% 29.77 in 10.0 mi SE 6.9 mph - N/A   Clear
9:53 PM 93.9 °F 95.6 °F 64.0 °F 37% 29.80 in 10.0 mi South 4.6 mph - N/A   Overcast
10:53 PM 91.0 °F 93.0 °F 64.9 °F 42% 29.82 in 10.0 mi SSW 5.8 mph - N/A   Mostly Cloudy
11:12 PM 91.4 °F 94.0 °F 66.2 °F 43% 29.85 in 10.0 mi Variable 6.9 mph - N/A Thunderstorm Partly Cloudy
11:27 PM 91.4 °F 94.0 °F 66.2 °F 43% 29.86 in 10.0 mi WSW 4.6 mph - N/A   Mostly Cloudy
11:39 PM 91.4 °F 94.0 °F 66.2 °F 43% 29.88 in 10.0 mi NNE 6.9 mph - N/A Thunderstorm Thunderstorm
11:53 PM 84.9 °F 89.4 °F 70.0 °F 61% 29.85 in 4.0 mi Calm Calm - 0.03 in Rain , Thunderstorm Rain
11:57 PM 80.6 °F 85.4 °F 73.4 °F 79% 29.88 in 1.8 mi SSE 3.5 mph - 0.06 in Rain , Thunderstorm Heavy Rain